Stations météo

réclame
Mon MeteoGroup
Aviano, Italie (16036): Température de l'air & dewpoint: 11.01.2019 01:00:00 - 17.01.2019 01:00:00 (CET)Aviano, Italie (16036): Vitesse du vent: 11.01.2019 01:00:00 - 17.01.2019 01:00:00 (CET)Aviano, Italie (16036): Direction du vent: 11.01.2019 01:00:00 - 17.01.2019 01:00:00 (CET)Aviano, Italie (16036): reduced air pressure: 11.01.2019 01:00:00 - 17.01.2019 01:00:00 (CET)Aviano, Italie (16036): visibility: 11.01.2019 01:00:00 - 17.01.2019 01:00:00 (CET)
Date & Time tt [°C] td [°C] ff [km/h] ff [knt] dd ppp [hPa] vv [km]
17.01.2019 01:00:00 - - - - - - -
17.01.2019 00:00:00 - - - - - - -
16.01.2019 23:00:00 - - - - - - -
16.01.2019 22:00:00 4,4 2,4 11 6 NNE 1018,8 25
16.01.2019 21:00:00 4,0 2,0 11 6 NE - 10
16.01.2019 20:00:00 3,0 1,0 11 6 NE - 10
16.01.2019 19:00:00 5,0 2,5 4 2 S 1018,6 25
16.01.2019 18:00:00 6,0 2,0 2 1 SSW - 10
16.01.2019 17:00:00 8,0 4,0 4 2 S - 10
16.01.2019 16:00:00 10,0 3,7 5 3 SSW 1017,9 20
16.01.2019 15:00:00 10,0 3,0 5 3 SSW - 10
16.01.2019 14:00:00 10,0 2,0 5 3 SW - 10
16.01.2019 13:00:00 9,8 1,7 8 4 SW 1019,1 20
16.01.2019 12:00:00 9,0 1,0 5 3 SSW - 10
16.01.2019 11:00:00 7,0 1,0 8 4 WSW - 10
16.01.2019 10:00:00 5,0 1,8 8 4 NE 1020,1 20
16.01.2019 09:00:00 0,0 -1,0 11 6 NNE - 10
16.01.2019 08:00:00 -1,0 -3,0 8 4 N - 10
16.01.2019 07:00:00 -1,0 -2,7 11 6 NNE 1019,0 15
16.01.2019 06:00:00 0,0 -2,0 9 5 N - 10
16.01.2019 05:00:00 0,0 -2,0 8 4 N - 10
16.01.2019 04:00:00 - - - - - - -
16.01.2019 03:00:00 - - - - - - -
16.01.2019 02:00:00 - - - - - - -
16.01.2019 01:00:00 - - - - - - -
16.01.2019 00:00:00 - - - - - - -
15.01.2019 23:00:00 0,0 -3,0 13 7 NNE - 10
15.01.2019 22:00:00 0,4 -2,1 13 7 NNE 1020,3 20
15.01.2019 21:00:00 0,0 -5,0 11 6 NNE - 10
15.01.2019 20:00:00 0,0 -5,0 11 6 NNE - 10
15.01.2019 19:00:00 2,2 -3,1 11 6 NNE 1019,4 20
15.01.2019 18:00:00 4,0 -3,0 9 5 NNE - 10
15.01.2019 17:00:00 8,0 -4,0 5 3 SE - 10
15.01.2019 16:00:00 10,4 -4,0 5 3 SE 1018,2 25
15.01.2019 15:00:00 11,0 -5,0 9 5 S - 10
15.01.2019 14:00:00 10,0 -4,0 11 6 S - 10
15.01.2019 13:00:00 10,2 -4,6 9 5 SSW 1018,1 25
15.01.2019 12:00:00 10,0 -4,0 15 8 SSW - 10
15.01.2019 11:00:00 9,0 -5,0 21 11 SSW - 10
15.01.2019 10:00:00 6,6 -5,4 11 6 S 1017,6 30
15.01.2019 09:00:00 4,0 -6,0 5 3 E - 10
15.01.2019 08:00:00 3,0 -7,0 16 9 SSW - 10
15.01.2019 07:00:00 4,2 -9,2 15 8 S 1014,4 15
15.01.2019 06:00:00 7,0 -9,0 11 6 E - 10
15.01.2019 05:00:00 6,0 -9,0 8 4 E - 10
15.01.2019 04:00:00 - - - - - - -
15.01.2019 03:00:00 - - - - - - -
15.01.2019 02:00:00 - - - - - - -
15.01.2019 01:00:00 - - - - - - -
15.01.2019 00:00:00 - - - - - - -
14.01.2019 23:00:00 - - - - - - -
14.01.2019 22:00:00 7,0 0,2 18 10 WNW 1009,2 15
14.01.2019 21:00:00 6,0 1,0 15 8 NNE - 10
14.01.2019 20:00:00 6,0 3,0 15 8 NE - 10
14.01.2019 19:00:00 5,0 1,8 5 3 SE 1004,7 15
14.01.2019 18:00:00 6,0 3,0 8 4 ENE - 10
14.01.2019 17:00:00 7,0 3,0 2 1 SE - 8
14.01.2019 16:00:00 9,6 4,0 8 4 E 1003,2 7
14.01.2019 15:00:00 10,0 4,0 5 3 SSE - 10
14.01.2019 14:00:00 10,0 4,0 9 5 SSW - 8
14.01.2019 13:00:00 9,4 3,2 11 6 S 1002,3 15
14.01.2019 12:00:00 9,0 2,0 5 3 S - 10
14.01.2019 11:00:00 8,0 2,0 8 4 S - 10
14.01.2019 10:00:00 6,0 3,3 5 3 NNW 1002,1 20
14.01.2019 09:00:00 3,0 2,0 8 4 NNE - 10
14.01.2019 08:00:00 2,0 1,0 9 5 WNW - 10
14.01.2019 07:00:00 1,6 0,9 13 7 NNE 1001,2 15
14.01.2019 06:00:00 1,0 1,0 13 7 NE - 10
14.01.2019 05:00:00 2,0 1,0 11 6 NNE - 10
14.01.2019 04:00:00 - - - - - - -
14.01.2019 03:00:00 - - - - - - -
14.01.2019 02:00:00 - - - - - - -
14.01.2019 01:00:00 - - - - - - -
14.01.2019 00:00:00 - - - - - - -
13.01.2019 23:00:00 - - - - - - -
13.01.2019 22:00:00 - - - - - - -
13.01.2019 21:00:00 - - - - - - -
13.01.2019 20:00:00 - - - - - - -
13.01.2019 19:00:00 - - - - - - -
13.01.2019 18:00:00 - - - - - - -
13.01.2019 17:00:00 - - - - - - -
13.01.2019 16:00:00 - - - - - - -
13.01.2019 15:00:00 - - - - - - -
13.01.2019 14:00:00 - - - - - - -
13.01.2019 13:00:00 - - - - - - -
13.01.2019 12:00:00 - - - - - - -
13.01.2019 11:00:00 - - - - - - -
13.01.2019 10:00:00 - - - - - - -
13.01.2019 09:00:00 - - - - - - -
13.01.2019 08:00:00 - - - - - - -
13.01.2019 07:00:00 - - - - - - -
13.01.2019 06:00:00 - - - - - - -
13.01.2019 05:00:00 - - - - - - -
13.01.2019 04:00:00 - - - - - - -
13.01.2019 03:00:00 - - - - - - -
13.01.2019 02:00:00 - - - - - - -
13.01.2019 01:00:00 - - - - - - -
13.01.2019 00:00:00 - - - - - - -
12.01.2019 23:00:00 - - - - - - -
12.01.2019 22:00:00 0,4 -3,0 9 5 NNE 1015,7 15
12.01.2019 21:00:00 1,0 -3,0 9 5 NE - 10
12.01.2019 20:00:00 0,0 -2,0 11 6 NNE - 10
12.01.2019 19:00:00 0,2 -1,6 11 6 N 1017,2 20
12.01.2019 18:00:00 2,0 -2,0 2 1 W - 10
12.01.2019 17:00:00 5,0 -1,0 0 0 N - 10
12.01.2019 16:00:00 5,0 -1,5 2 1 SSW 1017,4 25
12.01.2019 15:00:00 5,0 0,0 4 2 ENE - 10
12.01.2019 14:00:00 5,0 -1,0 4 2 E - 10
12.01.2019 13:00:00 5,0 -1,7 5 3 E 1018,6 25
12.01.2019 12:00:00 5,0 -1,0 4 2 SE - 10
12.01.2019 11:00:00 5,0 -1,0 8 4 NNE - 10
12.01.2019 10:00:00 1,0 -1,7 8 4 NE 1019,5 25
12.01.2019 09:00:00 -2,0 -3,0 8 4 NNE - 10
12.01.2019 08:00:00 -2,0 -3,0 8 4 NNE - 10
12.01.2019 07:00:00 -3,0 -3,7 5 3 N 1019,4 15
12.01.2019 06:00:00 -3,0 -3,0 5 3 N - 10
12.01.2019 05:00:00 -2,0 -3,0 8 4 N - 10
12.01.2019 04:00:00 - - - - - - -
12.01.2019 03:00:00 - - - - - - -
12.01.2019 02:00:00 - - - - - - -
12.01.2019 01:00:00 - - - - - - -
12.01.2019 00:00:00 - - - - - - -
11.01.2019 23:00:00 - - - - - - -
11.01.2019 22:00:00 0,0 -0,3 9 5 NNE 1020,9 15
11.01.2019 21:00:00 -1,0 -1,0 8 4 NNE - 10
11.01.2019 20:00:00 -1,0 -2,0 9 5 NNE - 10
11.01.2019 19:00:00 -0,6 -1,7 11 6 NE 1020,9 15
11.01.2019 18:00:00 0,0 -3,0 9 5 NE - 10
11.01.2019 17:00:00 3,0 -3,0 4 2 SE - 10
11.01.2019 16:00:00 5,2 -2,4 4 2 S 1020,4 13
11.01.2019 15:00:00 5,0 -3,0 8 4 SSW - 10
11.01.2019 14:00:00 5,0 -3,0 8 4 SW - 10
11.01.2019 13:00:00 5,2 -2,6 9 5 SSW 1020,7 18
11.01.2019 12:00:00 5,0 -3,0 9 5 SSW - 10
11.01.2019 11:00:00 4,0 -2,0 5 3 SSE - 10
11.01.2019 10:00:00 1,6 -1,3 8 4 ENE 1021,3 30
11.01.2019 09:00:00 -2,0 -2,0 5 3 E - 10
11.01.2019 08:00:00 -5,0 -5,0 5 3 N - 10
11.01.2019 07:00:00 -3,8 -4,2 5 3 N 1019,0 30
11.01.2019 06:00:00 -4,0 -5,0 5 3 N - 10
11.01.2019 05:00:00 -3,0 -5,0 8 4 NNE - 10
11.01.2019 04:00:00 - - - - - - -
11.01.2019 03:00:00 - - - - - - -
11.01.2019 02:00:00 - - - - - - -
11.01.2019 01:00:00 - - - - - - -

tt = Température de l'air
td = dewpoint
ff = Vitesse du vent
dd = Direction du vent
ppp = reduced air pressure
vv = visibility

stations d'obs. à proximité